TimeEDT,TemperatureF,Dew PointF,Humidity,Sea Level PressureIn,VisibilityMPH,Wind Direction,Wind SpeedMPH,Gust SpeedMPH,PrecipitationIn,Events,Conditions,WindDirDegrees,DateUTC
12:52 AM,60.1,53.1,78,29.99,10.0,West,4.6,-,N/A,,Clear,280,2013-10-08 04:52:00
1:52 AM,57.9,53.1,84,30.02,10.0,West,4.6,-,N/A,,Clear,280,2013-10-08 05:52:00
2:52 AM,57.0,51.1,81,30.04,10.0,West,3.5,-,N/A,,Clear,280,2013-10-08 06:52:00
3:52 AM,55.0,50.0,83,30.05,10.0,NW,6.9,-,N/A,,Clear,310,2013-10-08 07:52:00
4:52 AM,54.0,48.0,80,30.09,10.0,NNW,3.5,-,N/A,,Clear,330,2013-10-08 08:52:00
5:52 AM,53.1,48.0,83,30.12,10.0,NW,6.9,-,N/A,,Clear,320,2013-10-08 09:52:00
6:52 AM,51.1,46.9,86,30.15,10.0,Calm,Calm,-,N/A,,Clear,0,2013-10-08 10:52:00
7:52 AM,53.1,46.9,80,30.18,10.0,Calm,Calm,-,N/A,,Clear,0,2013-10-08 11:52:00
8:52 AM,57.9,46.9,67,30.21,10.0,NNE,3.5,-,N/A,,Clear,20,2013-10-08 12:52:00
9:52 AM,61.0,41.0,48,30.22,10.0,NW,13.8,20.7,N/A,,Clear,320,2013-10-08 13:52:00
10:52 AM,62.1,41.0,46,30.23,10.0,NNW,13.8,19.6,N/A,,Clear,330,2013-10-08 14:52:00
11:52 AM,64.0,41.0,43,30.23,10.0,North,16.1,20.7,N/A,,Clear,360,2013-10-08 15:52:00
12:52 PM,64.9,39.9,40,30.22,10.0,NW,10.4,20.7,N/A,,Clear,320,2013-10-08 16:52:00
1:52 PM,66.9,41.0,39,30.21,10.0,NNW,11.5,18.4,N/A,,Clear,330,2013-10-08 17:52:00
2:52 PM,68.0,41.0,37,30.22,10.0,NNW,6.9,-,N/A,,Clear,330,2013-10-08 18:52:00
3:52 PM,68.0,39.9,36,30.24,10.0,NNW,8.1,-,N/A,,Clear,330,2013-10-08 19:52:00
4:52 PM,66.0,39.9,38,30.24,10.0,NNW,9.2,-,N/A,,Clear,340,2013-10-08 20:52:00
5:52 PM,63.0,43.0,48,30.25,10.0,NNW,5.8,-,N/A,,Clear,330,2013-10-08 21:52:00
6:52 PM,60.1,43.0,53,30.27,10.0,NNW,4.6,-,N/A,,Clear,340,2013-10-08 22:52:00
7:52 PM,57.9,43.0,58,30.30,10.0,North,6.9,-,N/A,,Clear,360,2013-10-08 23:52:00
8:52 PM,57.0,43.0,59,30.30,10.0,North,8.1,-,N/A,,Clear,360,2013-10-09 00:52:00
9:52 PM,55.9,43.0,62,30.33,10.0,North,6.9,-,N/A,,Clear,10,2013-10-09 01:52:00
10:52 PM,55.0,44.1,67,30.34,10.0,North,9.2,-,N/A,,Clear,10,2013-10-09 02:52:00
11:52 PM,54.0,44.1,69,30.34,10.0,North,6.9,-,N/A,,Clear,10,2013-10-09 03:52:00